K8POS Weather Reports


time (UTC)temp
F
wind
direction
speed
knots
gust
knots
rain 1hr
in
rain 24hr
in
rain mn
in
humidity
%
barometer
mb
20260510113007 41 318 0.0 1.7 0.00 0.08 0.00 82 1014.8
20260510111505 40 0 0.0 0.0 0.00 0.08 0.00 83 1014.5
20260510104505 38 0 0.0 0.0 0.00 0.08 0.00 84 1014.1
20260510103008 38 0 0.0 0.0 0.00 0.08 0.00 84 1013.9
20260510101504 39 318 0.0 1.7 0.00 0.08 0.00 84 1013.6
20260510094505 39 319 0.0 2.6 0.00 0.08 0.00 84 1013.3
20260510093007 39 319 1.7 2.6 0.00 0.08 0.00 84 1012.9
20260510091505 38 15 0.9 3.5 0.00 0.08 0.00 85 1012.8
20260510084505 38 31 0.0 0.9 0.00 0.09 0.00 85 1012.2
20260510083008 38 31 0.0 1.7 0.00 0.09 0.00 85 1011.9
20260510081505 38 0 0.0 0.0 0.00 0.09 0.00 85 1011.8
20260510080007 38 0 0.0 0.0 0.00 0.09 0.00 85 1011.6
20260510074505 38 0 0.0 0.0 0.00 0.09 0.00 85 1011.5
20260510073007 39 0 0.0 0.0 0.00 0.09 0.00 85 1011.3
20260510071505 40 0 0.0 0.0 0.00 0.09 0.00 85 1011.2
20260510070008 40 0 0.0 0.0 0.00 0.09 0.00 84 1010.9
20260510064505 41 0 0.0 0.0 0.00 0.09 0.00 82 1010.8
20260510063007 42 0 0.0 0.0 0.00 0.09 0.00 81 1010.6
20260510061505 43 31 0.0 1.7 0.00 0.09 0.00 79 1010.4
20260510060008 43 32 0.9 2.6 0.00 0.09 0.00 78 1010.4
20260510054505 44 33 0.9 3.5 0.00 0.09 0.00 77 1010.3
20260510053008 45 30 1.7 7.0 0.00 0.09 0.00 75 1010.1
20260510051504 46 30 3.5 5.2 0.00 0.09 0.00 73 1010.0
20260510050007 46 350 0.9 7.8 0.00 0.09 0.00 72 1009.6
20260510044504 47 0 0.0 0.0 0.00 0.09 0.00 69 1009.2
20260510043011 48 0 0.0 0.0 0.00 0.09 0.00 68 1008.9
20260510041505 48 0 0.0 0.0 0.00 0.09 0.00 67 1008.7
20260510040030 50 297 1.7 3.5 0.00 0.09 0.00 66 1008.4
20260510033007 51 299 2.6 7.0 0.00 0.09 0.09 63 1008.1
20260510031505 52 300 3.5 8.7 0.00 0.09 0.09 63 1008.0
20260510030007 52 300 2.6 7.0 0.00 0.09 0.09 64 1007.9
20260510023007 53 304 2.6 6.1 0.00 0.09 0.09 64 1007.5
20260510020008 54 308 4.3 8.7 0.00 0.09 0.09 63 1006.6
20260510014505 54 313 7.0 9.6 0.00 0.09 0.09 61 1006.3
20260510013008 55 309 7.0 13.0 0.00 0.09 0.09 62 1005.9
20260510011505 56 309 7.0 13.0 0.00 0.09 0.09 61 1005.6
20260510004505 58 309 7.8 14.8 0.00 0.09 0.09 56 1004.6
20260510003008 61 303 4.3 14.8 0.00 0.09 0.09 51 1004.1
20260510001505 62 273 3.5 8.7 0.00 0.09 0.09 49 1003.7
20260510000007 62 266 5.2 10.4 0.00 0.09 0.09 47 1003.2
20260509234505 63 257 6.1 13.0 0.00 0.09 0.09 44 1003.1
20260509231505 65 248 7.8 17.4 0.00 0.09 0.09 42 1002.7
20260509230008 65 244 9.6 14.8 0.00 0.09 0.09 43 1002.2
20260509224504 66 246 10.4 20.0 0.00 0.09 0.09 42 1002.0
20260509223008 66 248 9.6 20.0 0.00 0.09 0.09 43 1001.6
20260509221504 66 245 9.6 16.5 0.00 0.09 0.09 45 1001.3
20260509220008 66 237 8.7 14.8 0.00 0.09 0.09 47 1001.0
20260509213008 66 247 8.7 21.7 0.00 0.09 0.09 48 1000.8
20260509211505 67 237 8.7 13.9 0.00 0.09 0.09 50 1000.9
20260509210007 66 234 8.7 18.2 0.00 0.09 0.09 49 1000.7
20260509204505 66 229 8.7 16.5 0.00 0.09 0.09 49 1000.6
20260509203008 65 231 10.4 28.7 0.00 0.09 0.09 50 1000.7
20260509201505 65 230 8.7 20.0 0.00 0.09 0.09 50 1001.0
20260509200008 65 236 9.6 22.6 0.00 0.09 0.09 51 1001.1
20260509191505 65 256 6.1 13.0 0.02 0.09 0.09 64 1001.3
20260509190007 62 239 4.3 13.9 0.05 0.09 0.09 77 1001.4
20260509184505 58 222 5.2 13.9 0.05 0.09 0.09 80 1001.5
20260509183007 56 218 7.0 13.0 0.05 0.09 0.09 82 1001.1
20260509181505 59 241 7.8 22.6 0.03 0.07 0.07 72 1001.4
20260509174505 68 216 4.3 13.0 0.00 0.04 0.04 57 999.9
20260509173007 67 190 4.3 12.2 0.00 0.04 0.04 62 1000.2
20260509171505 66 171 5.2 12.2 0.00 0.04 0.04 63 1000.5
20260509164504 64 161 7.8 18.2 0.00 0.04 0.04 73 1000.6
20260509161505 60 157 6.1 13.0 0.00 0.04 0.04 78 1001.1
20260509160009 59 162 6.1 18.2 0.00 0.04 0.04 79 1001.3
20260509154504 58 148 6.1 13.9 0.00 0.04 0.04 79 1001.3
20260509153007 57 144 5.2 11.3 0.00 0.04 0.04 79 1001.4
20260509151505 56 151 5.2 11.3 0.02 0.04 0.04 79 1001.7
20260509150008 56 144 4.3 12.2 0.03 0.04 0.04 79 1001.7
20260509144504 56 130 4.3 9.6 0.03 0.04 0.04 80 1001.7
20260509143007 53 127 2.6 7.8 0.03 0.04 0.04 81 1002.4
20260509141504 53 208 3.5 9.6 0.00 0.01 0.01 81 1003.9
20260509140008 53 213 1.7 6.1 0.00 0.01 0.01 81 1004.2
20260509133007 55 155 3.5 9.6 0.00 0.01 0.01 79 1002.7
20260509131504 56 153 5.2 11.3 0.00 0.01 0.01 79 1002.9
20260509130007 55 167 3.5 8.7 0.00 0.01 0.01 79 1003.0
20260509123007 51 164 1.7 5.2 0.00 0.01 0.01 80 1003.0
20260509121504 51 142 0.9 4.3 0.00 0.01 0.01 80 1003.2
20260509120008 50 141 0.9 4.3 0.00 0.01 0.01 81 1003.5
20260509114505 48 136 1.7 2.6 0.00 0.01 0.01 81 1003.5